Preview of NWS' New Version of Forecast
This preview is not operational and should not be used for support decisions.

Regional Weather Roundup (RWR)

Issued by National Weather Service (NWS)

                            
000
ASUS45 KBOI 171910
RWRID 

IDAHO REGIONAL WEATHER ROUNDUP
NATIONAL WEATHER SERVICE BOISE ID
100 PM MDT WED APR 17 2019

NOTE: "FAIR" INDICATES FEW OR NO CLOUDS BELOW 12000 FEET
WITH NO SIGNIFICANT WEATHER AND/OR OBSTRUCTIONS TO VISIBILITY

IDZ012-014-172000-
SOUTHWEST IDAHO

  
CITY           SKY/WX    TMP DP  RH WIND       PRES   REMARKS
BOISE          FAIR      58  39  49 NW9G17    30.23S                  
CALDWELL       PTSUNNY   59  41  51 W10       30.24F                  
MOUNTAIN HOME  FAIR      59  38  46 NW18G24   30.22R                  
$$

IDZ016-017-172000-
SOUTHCENTRAL IDAHO

  
CITY           SKY/WX    TMP DP  RH WIND       PRES   REMARKS
BURLEY         FAIR      56  33  42 W17G24    30.19S                  
JEROME         FAIR      56  35  45 SW20G29   30.21S                  
TWIN FALLS     FAIR      56  35  45 W23G30    30.21F                  
$$

IDZ019>023-172000-
SOUTHEAST IDAHO

  
CITY           SKY/WX    TMP DP  RH WIND       PRES   REMARKS
IDAHO FALLS    FAIR      51  33  50 SW16G23   30.16F                  
POCATELLO      FAIR      52  32  46 W18       30.19S                  
REXBURG        CLOUDY    48  35  60 SW12      30.15S                  
$$

IDZ006-010-011-018-031-032-172000-
CENTRAL IDAHO MOUNTAINS

  
CITY           SKY/WX    TMP DP  RH WIND       PRES   REMARKS
MCCALL         CLOUDY    39  31  72 S6        30.22R WCI  35          
HAILEY         MOSUNNY   54  28  37 SE9G15    30.16F                  
STANLEY          N/A     40  27  59 VRB3      30.22R                  
SALMON         CLOUDY    52  30  43 N8        30.15R                  
CHALLIS        PTSUNNY   53  28  38 CALM      30.16R                  
$$

IDZ002-004-006-007-026-172000-
NORTHERN IDAHO

  
CITY           SKY/WX    TMP DP  RH WIND       PRES   REMARKS
LEWISTON       CLOUDY    59  39  47 E6        30.22R                  
LOWELL         NOT AVBL                                               
COEUR D'ALENE  CLOUDY    56  38  50 SW18      30.15F                  
MULLAN PASS    CLOUDY    32  30  92 VRB5      30.14R WCI  27          
$$